Weather History for Vientiane, Lao Peoples Republic

Change the Weather History Date:

Thursday, March 21, 2013

  Actual Average Record
Temperature  
Mean Temperature 84 °F -  
Max Temperature 96 °F 83 °F 98 °F (1998)
Min Temperature 72 °F 74 °F 69 °F (2003)
Cooling Degree Days 19    
Growing Degree Days 34 (Base 50)    
Moisture  
Dew Point 67 °F    
Average Humidity 53    
Maximum Humidity 74    
Minimum Humidity 34    
Precipitation  
Precipitation 0.00 in 0.09 in - ()
Sea Level Pressure  
Sea Level Pressure 29.74 in    
Wind  
Wind Speed 2 mph ()    
Max Wind Speed 4 mph    
Max Gust Speed -    
Visibility 3.0 miles    
Events      
Averages and records for this station are not official NWS values.
T = Trace of Precipitation, MM = Missing Value Source: Averaged Metar Reports

Daily Weather History Graph

Daily Weather History Graph

Search for Another Location

Airport:

Trip Planner

Search our weather history database for the weather conditions in past years. The results will help you decide how hot, cold, wet, or windy it might be!

Date:

Astronomy

Mar. 21, 2013 Rise Set
Actual Time 6:13 AM ICT 6:20 PM ICT
Civil Twilight 5:51 AM ICT 6:42 PM ICT
Nautical Twilight 5:26 AM ICT 7:07 PM ICT
Astronomical Twilight 5:00 AM ICT 7:33 PM ICT
Moon 1:03 PM ICT (3/21) 1:29 AM ICT (3/21)
Length of Visible Light 12h 51m
Length of Day
12h 07m
Waxing Gibbous, 64% of the Moon is Illuminated
Mar 21
Waxing Gibbous
Mar 27
Full
Apr 3
Last Quarter
Apr 10
New
Apr 18
First Quarter

Hourly Weather History & Observations

Time (ICT) Temp. Heat Index Dew Point Humidity Pressure Visibility Wind Dir Wind Speed Gust Speed Precip Events Conditions
1:00 AM 76 °F - 67 °F 65% 29.73 in 1 mi WSW 2.2 mph - -   Mist
7:00 AM 73 °F - 64 °F 66% 29.76 in 2 mi SSE 2.2 mph - -   Mist
7:00 AM 84.2 °F 85.6 °F 64.4 °F 51% 29.77 in 1.9 mi SSE 2.3 mph - N/A   Scattered Clouds
7:30 AM 84.2 °F 85.6 °F 64.4 °F 51% 29.77 in 1.9 mi SSE 2.3 mph - N/A   Scattered Clouds
8:00 AM 75.2 °F - 62.6 °F 65% 29.83 in 2.5 mi NW 2.3 mph - N/A   Partly Cloudy
8:30 AM 75.2 °F - 62.6 °F 65% 29.83 in 2.5 mi NW 2.3 mph - N/A   Partly Cloudy
9:00 AM 78.8 °F - 62.6 °F 57% 29.83 in 3.1 mi SW 2.3 mph - N/A   Mist
9:30 AM 78.8 °F - 62.6 °F 57% 29.83 in 3.1 mi SW 2.3 mph - N/A   Mist
10:00 AM 82.4 °F 83.9 °F 64.4 °F 54% 29.83 in 3.7 mi North 2.3 mph - N/A   Unknown
10:30 AM 82.4 °F 83.9 °F 64.4 °F 54% 29.83 in 3.7 mi North 2.3 mph - N/A   Unknown
11:00 AM 86.0 °F 87.3 °F 64.4 °F 48% 29.83 in 3.7 mi East 2.3 mph - N/A   Unknown
11:30 AM 86.0 °F 87.3 °F 64.4 °F 48% 29.83 in 3.7 mi East 2.3 mph - N/A   Unknown
1:00 PM 92 °F - 67 °F 34% 29.71 in 4 mi East 4.5 mph - -   Haze
1:00 PM 91.4 °F 94.0 °F 66.2 °F 43% 29.74 in 3.7 mi East 2.3 mph - N/A   Unknown
1:30 PM 91.4 °F 94.0 °F 66.2 °F 43% 29.74 in 3.7 mi East 2.3 mph - N/A   Unknown
2:00 PM 93.2 °F 96.2 °F 66.2 °F 41% 29.74 in 3.7 mi SE 2.3 mph - N/A   Unknown
2:30 PM 93.2 °F 96.2 °F 66.2 °F 41% 29.74 in 3.7 mi SE 2.3 mph - N/A   Unknown
3:00 PM 93.2 °F 96.2 °F 66.2 °F 41% 29.68 in 5.0 mi South 2.3 mph - N/A   Unknown
3:30 PM 93.2 °F 96.2 °F 66.2 °F 41% 29.68 in 5.0 mi South 2.3 mph - N/A   Unknown
4:00 PM 95.0 °F 98.5 °F 66.2 °F 39% 29.65 in 5.0 mi South 2.3 mph - N/A   Unknown
4:30 PM 95.0 °F 98.5 °F 66.2 °F 39% 29.65 in 5.0 mi South 2.3 mph - N/A   Unknown
5:00 PM 93.2 °F 96.2 °F 66.2 °F 41% 29.65 in 3.7 mi West 2.3 mph - N/A   Scattered Clouds
6:00 PM 89.6 °F 93.4 °F 68.0 °F 49% 29.68 in 2.5 mi WSW 2.3 mph - N/A   Haze
6:30 PM 89.6 °F 93.4 °F 68.0 °F 49% 29.68 in 2.5 mi WSW 2.3 mph - N/A   Haze
7:00 PM 88 °F - 72 °F 50% 29.64 in 2 mi South 2.2 mph - -   Mist
7:00 PM 87.8 °F 93.8 °F 71.6 °F 58% 29.68 in 1.9 mi SE 2.3 mph - N/A   Scattered Clouds
7:30 PM 87.8 °F 93.8 °F 71.6 °F 58% 29.68 in 1.9 mi SE 2.3 mph - N/A   Scattered Clouds
8:00 PM 86.0 °F 91.8 °F 71.6 °F 62% 29.68 in 1.9 mi West 2.3 mph - N/A   Mist
8:30 PM 86.0 °F 91.8 °F 71.6 °F 62% 29.68 in 1.9 mi West 2.3 mph - N/A   Mist
9:00 PM 82.4 °F 87.2 °F 71.6 °F 70% 29.71 in 1.9 mi SW 2.3 mph - N/A   Mist
9:30 PM 82.4 °F 87.2 °F 71.6 °F 70% 29.71 in 1.9 mi SW 2.3 mph - N/A   Mist
10:00 PM 80.6 °F 84.6 °F 71.6 °F 74% 29.74 in 1.9 mi SW 2.3 mph - N/A   Mist